• In Deutschland
  • Länderverzeichnis
  • Für 7 Tage
  • Wassertemperatur
  • Satellitenkarten
  • Wetterkarte
  • Widgets
  • user-avatar
    Anmelden

    Stündliche Wetter Kozani

    Heute, 17 Oktober, Mittwoch

    Zeit Temperatur Niederschläge Wind Luftdruck Luftfeuchtigkeit
    00:00 +13°C° 0 mm 0 m/S 707 mmHg 77%
    01:00 +12°C° 0 mm 0 m/S 707 mmHg 79%
    02:00 +12°C° 0 mm 0 m/S 707 mmHg 80%
    03:00 +13°C° 0 mm 1 m/S 707 mmHg 81%
    04:00 +13°C° 0 mm 1 m/S 706 mmHg 82%
    05:00 +13°C° 0 mm 1 m/S 706 mmHg 80%
    06:00 +14°C° 0 mm 1 m/S 706 mmHg 77%
    07:00 +15°C° 0 mm 1 m/S 707 mmHg 73%
    08:00 +16°C° 0 mm 1 m/S 707 mmHg 66%
    09:00 +19°C° 0 mm 1 m/S 707 mmHg 58%
    10:00 +21°C° 0 mm 1 m/S 707 mmHg 51%
    11:00 +22°C° 0 mm 1 m/S 707 mmHg 47%
    12:00 +22°C° 0 mm 1 m/S 706 mmHg 44%
    13:00 +23°C° 0 mm 2 m/S 706 mmHg 41%
    14:00 +21°C° 0 mm 2 m/S 706 mmHg 43%
    15:00 +22°C° 0 mm 1 m/S 705 mmHg 45%
    16:00 +21°C° 0 mm 1 m/S 705 mmHg 46%
    17:00 +20°C° 0 mm 1 m/S 705 mmHg 51%
    18:00 +18°C° 0 mm 1 m/S 705 mmHg 55%
    19:00 +16°C° 0 mm 1 m/S 705 mmHg 60%
    20:00 +15°C° 0 mm 1 m/S 705 mmHg 61%
    21:00 +15°C° 0 mm 1 m/S 705 mmHg 62%
    22:00 +13°C° 0 mm 0 m/S 705 mmHg 63%
    23:00 +13°C° 0 mm 0 m/S 705 mmHg 65%

    Morgen, 18 Oktober, Donnerstag

    Zeit Temperatur Niederschläge Wind Luftdruck Luftfeuchtigkeit
    00:00 +13°C° 0 mm 0 m/S 705 mmHg 66%
    01:00 +12°C° 0 mm 0 m/S 705 mmHg 67%
    02:00 +12°C° 0 mm 0 m/S 705 mmHg 68%
    03:00 +13°C° 0 mm 1 m/S 704 mmHg 69%
    04:00 +13°C° 0 mm 1 m/S 704 mmHg 70%
    05:00 +13°C° 0 mm 1 m/S 704 mmHg 69%
    06:00 +14°C° 0 mm 1 m/S 704 mmHg 67%
    07:00 +14°C° 0 mm 1 m/S 705 mmHg 65%
    08:00 +16°C° 0 mm 1 m/S 705 mmHg 59%
    09:00 +19°C° 0 mm 1 m/S 705 mmHg 53%
    10:00 +21°C° 0 mm 1 m/S 705 mmHg 47%
    11:00 +21°C° 0 mm 1 m/S 705 mmHg 45%
    12:00 +22°C° 0 mm 1 m/S 705 mmHg 43%
    13:00 +23°C° 0 mm 2 m/S 704 mmHg 42%
    14:00 +21°C° 0 mm 2 m/S 704 mmHg 44%
    15:00 +21°C° 0 mm 2 m/S 704 mmHg 46%
    16:00 +21°C° 0 mm 1 m/S 704 mmHg 48%
    17:00 +20°C° 0 mm 1 m/S 704 mmHg 53%
    18:00 +18°C° 0 mm 1 m/S 704 mmHg 58%
    19:00 +16°C° 0 mm 1 m/S 704 mmHg 62%
    20:00 +15°C° 0 mm 1 m/S 704 mmHg 64%
    21:00 +14°C° 0 mm 0 m/S 704 mmHg 65%
    22:00 +13°C° 0 mm 0 m/S 704 mmHg 67%
    23:00 +13°C° 0 mm 0 m/S 704 mmHg 68%

    übermorgen, 19 Oktober, Freitag

    Zeit Temperatur Niederschläge Wind Luftdruck Luftfeuchtigkeit
    00:00 +13°C° 0 mm 0 m/S 704 mmHg 69%
    01:00 +12°C° 0 mm 0 m/S 704 mmHg 71%
    02:00 +12°C° 0 mm 0 m/S 704 mmHg 72%
    03:00 +12°C° 0 mm 0 m/S 704 mmHg 73%
    04:00 +13°C° 0 mm 1 m/S 704 mmHg 74%
    05:00 +13°C° 0 mm 1 m/S 704 mmHg 72%
    06:00 +14°C° 0 mm 1 m/S 704 mmHg 70%
    07:00 +15°C° 0 mm 1 m/S 705 mmHg 67%
    08:00 +18°C° 0 mm 1 m/S 705 mmHg 61%
    09:00 +20°C° 0 mm 1 m/S 705 mmHg 54%
    10:00 +21°C° 0 mm 1 m/S 705 mmHg 47%
    11:00 +22°C° 0 mm 1 m/S 705 mmHg 44%
    12:00 +23°C° 0 mm 1 m/S 705 mmHg 42%
    13:00 +24°C° 0 mm 1 m/S 705 mmHg 39%
    14:00 +23°C° 0 mm 1 m/S 705 mmHg 41%
    15:00 +23°C° 0 mm 1 m/S 705 mmHg 43%
    16:00 +22°C° 0 mm 1 m/S 705 mmHg 45%
    17:00 +21°C° 0 mm 1 m/S 705 mmHg 49%
    18:00 +19°C° 0 mm 1 m/S 705 mmHg 53%
    19:00 +18°C° 0 mm 1 m/S 705 mmHg 57%
    20:00 +16°C° 0 mm 1 m/S 705 mmHg 58%
    21:00 +16°C° 0 mm 1 m/S 705 mmHg 60%
    22:00 +14°C° 0 mm 0 m/S 705 mmHg 61%
    23:00 +15°C° 0 mm 1 m/S 705 mmHg 62%

    20 Oktober, Samstag

    Zeit Temperatur Niederschläge Wind Luftdruck Luftfeuchtigkeit
    00:00 +15°C° 0 mm 1 m/S 705 mmHg 63%
    01:00 +14°C° 0 mm 1 m/S 705 mmHg 64%
    02:00 +14°C° 0 mm 1 m/S 705 mmHg 65%
    03:00 +14°C° 0 mm 1 m/S 705 mmHg 67%
    04:00 +13°C° 0 mm 1 m/S 705 mmHg 68%
    05:00 +14°C° 0 mm 1 m/S 705 mmHg 68%
    06:00 +14°C° 0 mm 1 m/S 706 mmHg 67%
    07:00 +14°C° 0 mm 2 m/S 706 mmHg 67%
    08:00 +16°C° 0 mm 2 m/S 706 mmHg 61%
    09:00 +18°C° 0 mm 2 m/S 707 mmHg 55%
    10:00 +19°C° 0 mm 3 m/S 707 mmHg 50%
    11:00 +20°C° 0 mm 3 m/S 707 mmHg 47%
    12:00 +20°C° 0 mm 3 m/S 706 mmHg 45%
    13:00 +21°C° 0 mm 3 m/S 706 mmHg 42%
    14:00 +20°C° 0 mm 3 m/S 706 mmHg 43%
    15:00 +20°C° 0 mm 2 m/S 706 mmHg 44%
    16:00 +19°C° 0 mm 2 m/S 706 mmHg 45%
    17:00 +17°C° 0 mm 2 m/S 706 mmHg 49%
    18:00 +16°C° 0 mm 2 m/S 706 mmHg 54%
    19:00 +14°C° 0 mm 2 m/S 706 mmHg 58%
    20:00 +14°C° 0 mm 2 m/S 706 mmHg 61%
    21:00 +13°C° 0 mm 2 m/S 706 mmHg 65%
    22:00 +13°C° 0 mm 2 m/S 707 mmHg 68%
    23:00 +12°C° 0 mm 2 m/S 706 mmHg 71%

    21 Oktober, Sonntag

    Zeit Temperatur Niederschläge Wind Luftdruck Luftfeuchtigkeit
    00:00 +12°C° 0 mm 2 m/S 706 mmHg 74%
    01:00 +10°C° 0 mm 2 m/S 706 mmHg 77%
    02:00 +10°C° 0 mm 2 m/S 706 mmHg 79%
    03:00 +9°C° 0 mm 2 m/S 706 mmHg 81%
    04:00 +9°C° 0 mm 2 m/S 706 mmHg 82%
    05:00 +9°C° 0 mm 2 m/S 706 mmHg 81%
    06:00 +10°C° 0 mm 2 m/S 707 mmHg 80%
    07:00 +10°C° 0 mm 2 m/S 707 mmHg 79%
    08:00 +13°C° 0 mm 2 m/S 707 mmHg 70%
    09:00 +15°C° 0 mm 2 m/S 707 mmHg 62%
    10:00 +16°C° 0 mm 2 m/S 707 mmHg 54%
    11:00 +17°C° 0 mm 2 m/S 707 mmHg 51%
    12:00 +18°C° 0 mm 2 m/S 706 mmHg 48%
    13:00 +19°C° 0 mm 2 m/S 706 mmHg 46%
    14:00 +18°C° 0 mm 2 m/S 706 mmHg 47%
    15:00 +19°C° 0 mm 1 m/S 705 mmHg 49%
    16:00 +18°C° 0 mm 1 m/S 705 mmHg 51%
    17:00 +16°C° 0 mm 1 m/S 705 mmHg 56%
    18:00 +15°C° 0 mm 1 m/S 705 mmHg 60%
    19:00 +14°C° 0 mm 1 m/S 705 mmHg 64%
    20:00 +13°C° 0 mm 1 m/S 704 mmHg 65%
    21:00 +13°C° 0 mm 1 m/S 704 mmHg 67%
    22:00 +12°C° 0 mm 1 m/S 704 mmHg 68%
    23:00 +12°C° 0.1 mm 1 m/S 704 mmHg 70%

    22 Oktober, Montag

    Zeit Temperatur Niederschläge Wind Luftdruck Luftfeuchtigkeit
    00:00 +12°C° 0.1 mm 1 m/S 703 mmHg 71%
    01:00 +12°C° 0.1 mm 1 m/S 703 mmHg 73%
    02:00 +11°C° 0.3 mm 1 m/S 703 mmHg 74%
    03:00 +10°C° 0.3 mm 2 m/S 703 mmHg 76%
    04:00 +9°C° 0.3 mm 2 m/S 702 mmHg 78%
    05:00 +9°C° 1.1 mm 2 m/S 702 mmHg 79%
    06:00 +9°C° 1.1 mm 2 m/S 702 mmHg 80%
    07:00 +8°C° 1.1 mm 3 m/S 702 mmHg 82%
    08:00 +8°C° 2.1 mm 3 m/S 702 mmHg 82%
    09:00 +7°C° 2.1 mm 3 m/S 702 mmHg 82%
    10:00 +7°C° 2.1 mm 3 m/S 702 mmHg 83%
    11:00 +7°C° 2 mm 2 m/S 702 mmHg 84%
    12:00 +7°C° 2 mm 2 m/S 701 mmHg 85%
    13:00 +7°C° 2 mm 2 m/S 701 mmHg 86%
    14:00 +7°C° 3.3 mm 2 m/S 701 mmHg 87%
    15:00 +6°C° 3.3 mm 2 m/S 701 mmHg 89%
    16:00 +6°C° 3.3 mm 2 m/S 701 mmHg 90%
    17:00 +6°C° 4.3 mm 2 m/S 701 mmHg 91%
    18:00 +6°C° 4.3 mm 2 m/S 701 mmHg 92%
    19:00 +6°C° 4.3 mm 2 m/S 701 mmHg 92%
    20:00 +6°C° 3.9 mm 2 m/S 701 mmHg 92%
    21:00 +6°C° 3.9 mm 2 m/S 702 mmHg 92%
    22:00 +6°C° 3.9 mm 2 m/S 702 mmHg 93%
    23:00 +6°C° 2.8 mm 2 m/S 702 mmHg 93%
    Mehr zeigen